SIA204 YBCS-WSSS

Flight info

Callsign SIA204
Flight time N/A
Altitude 40000
Route CS J61 IKUMA A464 KIKEM M774 OBDOS T22 UGEBO UGEBO1A
Aircraft A359/H-SDE2E3GHIJ3J4J5LM1ORWXY/LB1D1

Departure

Time 2026-04-27 23:12
Airport Cairns International Airport (YBCS)

Arrival

Time N/A
Airport Singapore Changi Airport (WSSS)
Time Latitude Longitude Altitude Speed Heading
2026-04-27 22:43 -16.87146 145.75651 23 ft 0 kts 157°
2026-04-27 23:01 -16.87141 145.75649 26 ft 4 kts 157°
2026-04-27 23:01 -16.87116 145.75638 25 ft 3 kts 157°
2026-04-27 23:01 -16.87099 145.75631 27 ft 4 kts 189°
2026-04-27 23:02 -16.87080 145.75639 26 ft 4 kts 227°
2026-04-27 23:02 -16.87065 145.75661 27 ft 4 kts 244°
2026-04-27 23:02 -16.87060 145.75673 28 ft 4 kts 249°
2026-04-27 23:05 -16.87068 145.75652 23 ft 5 kts 246°
2026-04-27 23:05 -16.87084 145.75612 23 ft 7 kts 248°
2026-04-27 23:05 -16.87105 145.75557 25 ft 9 kts 248°
2026-04-27 23:06 -16.87132 145.75490 23 ft 11 kts 246°
2026-04-27 23:06 -16.87165 145.75410 25 ft 13 kts 248°
2026-04-27 23:06 -16.87202 145.75319 23 ft 14 kts 247°
2026-04-27 23:06 -16.87244 145.75218 23 ft 16 kts 245°
2026-04-27 23:07 -16.87287 145.75120 23 ft 15 kts 245°
2026-04-27 23:07 -16.87319 145.75045 23 ft 11 kts 248°
2026-04-27 23:07 -16.87320 145.74962 23 ft 12 kts 289°
2026-04-27 23:07 -16.87277 145.74878 23 ft 14 kts 313°
2026-04-27 23:08 -16.87183 145.74836 23 ft 16 kts 349°
2026-04-27 23:08 -16.87095 145.74790 23 ft 8 kts 329°
2026-04-27 23:08 -16.87054 145.74746 23 ft 9 kts 292°
2026-04-27 23:08 -16.87065 145.74675 22 ft 11 kts 247°
2026-04-27 23:09 -16.87083 145.74593 20 ft 12 kts 289°
2026-04-27 23:09 -16.87015 145.74545 21 ft 13 kts 338°
2026-04-27 23:09 -16.86928 145.74508 21 ft 14 kts 338°
2026-04-27 23:09 -16.86829 145.74466 21 ft 16 kts 338°
2026-04-27 23:10 -16.86721 145.74417 22 ft 17 kts 334°
2026-04-27 23:10 -16.86644 145.74368 27 ft 10 kts 316°
2026-04-27 23:10 -16.86584 145.74341 27 ft 8 kts 19°
2026-04-27 23:10 -16.86585 145.74374 25 ft 4 kts 131°
2026-04-27 23:11 -16.86608 145.74379 26 ft 4 kts 180°
2026-04-27 23:11 -16.86641 145.74386 29 ft 7 kts 165°
2026-04-27 23:11 -16.86880 145.74476 21 ft 69 kts 154°
2026-04-27 23:11 -16.87497 145.74766 29 ft 126 kts 156°
2026-04-27 23:12 -16.88431 145.75191 301 ft 149 kts 156°
2026-04-27 23:12 -16.89313 145.75614 1167 ft 134 kts 153°
2026-04-27 23:12 -16.89958 145.76215 1924 ft 121 kts 117°
2026-04-27 23:12 -16.89877 145.77041 2320 ft 128 kts 57°
2026-04-27 23:13 -16.89014 145.77544 2641 ft 163 kts 25°
2026-04-27 23:13 -16.87875 145.77910 2833 ft 181 kts 10°
2026-04-27 23:13 -16.86557 145.77826 3046 ft 201 kts 347°
2026-04-27 23:13 -16.85363 145.76982 3169 ft 221 kts 303°
2026-04-27 23:14 -16.84812 145.75447 3355 ft 234 kts 275°
2026-04-27 23:14 -16.84865 145.73722 3587 ft 246 kts 253°
2026-04-27 23:14 -16.85307 145.71924 3871 ft 262 kts 250°
2026-04-27 23:14 -16.85773 145.70067 4328 ft 272 kts 252°
2026-04-27 23:15 -16.86224 145.68097 4877 ft 279 kts 253°
2026-04-27 23:15 -16.86648 145.66128 5417 ft 284 kts 255°
2026-04-27 23:15 -16.87069 145.64102 6036 ft 287 kts 255°
2026-04-27 23:15 -16.87490 145.62051 6591 ft 291 kts 256°
2026-04-27 23:16 -16.87911 145.59974 7188 ft 292 kts 256°
2026-04-27 23:16 -16.88330 145.57904 7832 ft 291 kts 256°
2026-04-27 23:16 -16.88747 145.55836 8441 ft 292 kts 256°
2026-04-27 23:16 -16.89166 145.53752 9066 ft 293 kts 256°
2026-04-27 23:17 -16.89586 145.51666 9701 ft 294 kts 257°
2026-04-27 23:17 -16.90007 145.49573 10286 ft 296 kts 257°